Showing default

FLOCK 4Y 33, 55042

Orbit data source: Space-Track

FLOCK 4Y 33, 55042 is a payload satellite owned by Planet (US) in SSO that was launched on Tue, 03 Jan 2023 UTC via an FALCON 9 launch vehicle from the Air Force Eastern Test Range (AFETR). Payload-class satellites include a variety of spacecraft equipped with specific instruments for various scientific and technological missions. These include communications satellites like Starlink; space stations such as the ISS; scientific satellites like the Hubble; Earth observation satellites from companies like Planet Labs, Umbra, and HawkEye 360; GPS; miniature CubeSats for education and research; and military/defense satellites.

Not visible in the next 10 days
Identifier
55042, 2023-001AK
Orbit
SSO
Country
Flag of USUS
Related business
Manufacturer
Planet
Mission
Non-operational Commercial Imaging
Bus & Motor
CUBESAT 3U, Unknown motor
Mass
5.7 kg wet, 5.7 kg dry
Launch date (UTC)
2023-01-03 (3 years ago)
Launch vehicle
FALCON 9
Launch site
Air Force Eastern Test Range (AFETR)
Object type
Payload
Rocket body
Debris
Shape & HBR
Box + 2 Pan, 0.1 m
Radar Cross Section
0.108 m², Small (<0.1 m²)

Expand to show TLE details & history
Last TLE update: 21 hours ago

TLE from 21 hours ago
0 FLOCK 4Y 33
1 55042U 23001AK  25260.72118293  .00941395  41534-3  21246-2 0  9998
2 55042  97.3522 338.3855 0010162 260.8908  99.1219 15.97611058151533
Epoch: 2025-09-17T17:18Z
TLE epoch observation values (Epoch: 2025-09-17T17:18:30.205Z)
Latitude
-0.00004°
Longitude
81.86658°
Altitude
285.325 km
Speed
7.736 km/s
True Right ascension
22h 33m 32s
True Declination
0° 00' 00"
Sunlit
Object was in full shadow at epoch
Visualization orbit readout
Latitude
Unknown
Longitude
Unknown
Altitude
Unknown
Speed
Unknown
Apparent Right ascension
Unknown
Apparent Declination
Unknown
Sunlit
N/A
Visualization observer readout
Local Sidereal Time
06:42:00
Azimuth
Unknown
Elevation
Unknown
Doppler factor
Unknown
Orbital elements
Apogee altitude
284.674 km
Perigee altitude
271.146 km
Semi-major axis
6,656.047 km
Eccentricity
0.00102
Inclination
97.3522°
RAAN
338.3855°
Arg. of periapsis
260.8908°
True anomaly
99.23685°
Mean anomaly
99.1219°
Eccentric anomaly
99.17938°
Mean motion
3.99686 °/min
Orbital period
90.07 mins
BSTAR
0.0021246
Loading maneuver chart data...
Computing Atmospheric mass density...
Loading historical data...
Loading historical data...
Loading historical data...
Loading historical data...
Loading historical data...
Loading historical data...
Loading historical data...

Documentation

Showing up to 5 results
|